Year,Month,Day,Hour,Minute,Value (Times are PST for temperature in C)
2011,09,20,00,00,10.20
2011,09,20,00,01,10.20
2011,09,20,00,02,10.20
2011,09,20,00,03,10.20
2011,09,20,00,04,10.30
2011,09,20,00,05,10.20
2011,09,20,00,06,10.20
2011,09,20,00,07,10.20
2011,09,20,00,08,10.20
2011,09,20,00,09,10.20
2011,09,20,00,10,10.10
2011,09,20,00,11,10.10
2011,09,20,00,12,10.10
2011,09,20,00,13,10.10
2011,09,20,00,14,10.10
2011,09,20,00,15,10.10
2011,09,20,00,16,10.10
2011,09,20,00,17,10.00
2011,09,20,00,18,10.00
2011,09,20,00,19,10.00
2011,09,20,00,20,9.90
2011,09,20,00,21,9.90
2011,09,20,00,22,9.90
2011,09,20,00,23,9.80
2011,09,20,00,24,9.80
2011,09,20,00,25,9.70
2011,09,20,00,26,9.70
2011,09,20,00,27,9.70
2011,09,20,00,28,9.70
2011,09,20,00,29,9.60
2011,09,20,00,30,9.60
2011,09,20,00,31,9.60
2011,09,20,00,32,9.60
2011,09,20,00,33,9.60
2011,09,20,00,34,9.60
2011,09,20,00,35,9.60
2011,09,20,00,36,9.60
2011,09,20,00,37,9.50
2011,09,20,00,38,9.50
2011,09,20,00,39,9.40
2011,09,20,00,40,9.40
2011,09,20,00,41,9.40
2011,09,20,00,42,9.30
2011,09,20,00,43,9.30
2011,09,20,00,44,9.30
2011,09,20,00,45,9.30
2011,09,20,00,46,9.30
2011,09,20,00,47,9.30
2011,09,20,00,48,9.30
2011,09,20,00,49,9.30
2011,09,20,00,50,9.30
2011,09,20,00,51,9.30
2011,09,20,00,52,9.30
2011,09,20,00,53,9.30
2011,09,20,00,54,9.30
2011,09,20,00,55,9.30
2011,09,20,00,56,9.30
2011,09,20,00,57,9.30
2011,09,20,00,58,9.30
2011,09,20,00,59,9.30
2011,09,20,01,00,9.30
2011,09,20,01,01,9.40
2011,09,20,01,02,9.40
2011,09,20,01,03,9.40
2011,09,20,01,04,9.40
2011,09,20,01,05,9.40
2011,09,20,01,06,9.40
2011,09,20,01,07,9.40
2011,09,20,01,08,9.40
2011,09,20,01,09,9.40
2011,09,20,01,10,9.40
2011,09,20,01,11,9.30
2011,09,20,01,12,9.30
2011,09,20,01,13,9.30
2011,09,20,01,14,9.20
2011,09,20,01,15,9.20
2011,09,20,01,16,9.20
2011,09,20,01,17,9.20
2011,09,20,01,18,9.20
2011,09,20,01,19,9.10
2011,09,20,01,20,9.10
2011,09,20,01,21,9.10
2011,09,20,01,22,9.10
2011,09,20,01,23,9.10
2011,09,20,01,24,9.00
2011,09,20,01,25,9.00
2011,09,20,01,26,9.00
2011,09,20,01,27,9.00
2011,09,20,01,28,9.00
2011,09,20,01,29,9.00
2011,09,20,01,30,9.00
2011,09,20,01,31,8.90
2011,09,20,01,32,8.90
2011,09,20,01,33,8.90
2011,09,20,01,34,8.90
2011,09,20,01,35,8.90
2011,09,20,01,36,8.80
2011,09,20,01,37,8.80
2011,09,20,01,38,8.80
2011,09,20,01,39,8.80
2011,09,20,01,40,8.80
2011,09,20,01,41,8.80
2011,09,20,01,42,8.80
2011,09,20,01,43,8.80
2011,09,20,01,44,8.80
2011,09,20,01,45,8.70
2011,09,20,01,46,8.70
2011,09,20,01,47,8.70
2011,09,20,01,48,8.70
2011,09,20,01,49,8.70
2011,09,20,01,50,8.70
2011,09,20,01,51,8.70
2011,09,20,01,52,8.60
2011,09,20,01,53,8.60
2011,09,20,01,54,8.60
2011,09,20,01,55,8.60
2011,09,20,01,56,8.60
2011,09,20,01,57,8.60
2011,09,20,01,58,8.60
2011,09,20,01,59,8.50
2011,09,20,02,00,8.50
2011,09,20,02,01,8.50
2011,09,20,02,02,8.50
2011,09,20,02,03,8.50
2011,09,20,02,04,8.40
2011,09,20,02,05,8.40
2011,09,20,02,06,8.40
2011,09,20,02,07,8.40
2011,09,20,02,08,8.40
2011,09,20,02,09,8.40
2011,09,20,02,10,8.40
2011,09,20,02,11,8.40
2011,09,20,02,12,8.40
2011,09,20,02,13,8.30
2011,09,20,02,14,8.30
2011,09,20,02,15,8.30
2011,09,20,02,16,8.30
2011,09,20,02,17,8.30
2011,09,20,02,18,8.30
2011,09,20,02,19,8.30
2011,09,20,02,20,8.30
2011,09,20,02,21,8.30
2011,09,20,02,22,8.30
2011,09,20,02,23,8.30
2011,09,20,02,24,8.30
2011,09,20,02,25,8.30
2011,09,20,02,26,8.30
2011,09,20,02,27,8.30
2011,09,20,02,28,8.20
2011,09,20,02,29,8.20
2011,09,20,02,30,8.20
2011,09,20,02,31,8.20
2011,09,20,02,32,8.20
2011,09,20,02,33,8.20
2011,09,20,02,34,8.20
2011,09,20,02,35,8.20
2011,09,20,02,36,8.10
2011,09,20,02,37,8.10
2011,09,20,02,38,8.20
2011,09,20,02,39,8.20
2011,09,20,02,40,8.20
2011,09,20,02,41,8.10
2011,09,20,02,42,8.10
2011,09,20,02,43,8.10
2011,09,20,02,44,8.10
2011,09,20,02,45,8.10
2011,09,20,02,46,8.10
2011,09,20,02,47,8.10
2011,09,20,02,48,8.00
2011,09,20,02,49,8.00
2011,09,20,02,50,8.00
2011,09,20,02,51,8.00
2011,09,20,02,52,8.00
2011,09,20,02,53,8.00
2011,09,20,02,54,8.00
2011,09,20,02,55,8.00
2011,09,20,02,56,8.00
2011,09,20,02,57,8.00
2011,09,20,02,58,8.00
2011,09,20,02,59,7.90
2011,09,20,03,00,7.90
2011,09,20,03,01,7.90
2011,09,20,03,02,7.90
2011,09,20,03,03,7.90
2011,09,20,03,04,7.90
2011,09,20,03,05,7.90
2011,09,20,03,06,7.80
2011,09,20,03,07,7.80
2011,09,20,03,08,7.80
2011,09,20,03,09,7.80
2011,09,20,03,10,7.80
2011,09,20,03,11,7.70
2011,09,20,03,12,7.70
2011,09,20,03,13,7.70
2011,09,20,03,14,7.70
2011,09,20,03,15,7.70
2011,09,20,03,16,7.70
2011,09,20,03,17,7.70
2011,09,20,03,18,7.70
2011,09,20,03,19,7.70
2011,09,20,03,20,7.80
2011,09,20,03,21,7.80
2011,09,20,03,22,7.80
2011,09,20,03,23,7.80
2011,09,20,03,24,7.80
2011,09,20,03,25,7.80
2011,09,20,03,26,7.80
2011,09,20,03,27,7.80
2011,09,20,03,28,7.80
2011,09,20,03,29,7.80
2011,09,20,03,30,7.80
2011,09,20,03,31,7.80
2011,09,20,03,32,7.80
2011,09,20,03,33,7.80
2011,09,20,03,34,7.80
2011,09,20,03,35,7.80
2011,09,20,03,36,7.80
2011,09,20,03,37,7.80
2011,09,20,03,38,7.80
2011,09,20,03,39,7.80
2011,09,20,03,40,7.80
2011,09,20,03,41,7.80
2011,09,20,03,42,7.80
2011,09,20,03,43,7.80
2011,09,20,03,44,7.80
2011,09,20,03,45,7.80
2011,09,20,03,46,7.80
2011,09,20,03,47,7.80
2011,09,20,03,48,7.90
2011,09,20,03,49,7.90
2011,09,20,03,50,7.90
2011,09,20,03,51,7.90
2011,09,20,03,52,7.90
2011,09,20,03,53,7.90
2011,09,20,03,54,7.90
2011,09,20,03,55,7.90
2011,09,20,03,56,7.90
2011,09,20,03,57,7.90
2011,09,20,03,58,7.90
2011,09,20,03,59,7.90
2011,09,20,04,00,7.90
2011,09,20,04,01,7.90
2011,09,20,04,02,7.90
2011,09,20,04,03,7.90
2011,09,20,04,04,7.90
2011,09,20,04,05,7.90
2011,09,20,04,06,7.90
2011,09,20,04,09,8.00
2011,09,20,04,12,7.90
2011,09,20,04,14,7.90
2011,09,20,04,15,7.90
2011,09,20,04,16,7.80
2011,09,20,04,17,7.80
2011,09,20,04,18,7.80
2011,09,20,04,19,7.80
2011,09,20,04,20,7.80
2011,09,20,04,21,7.80
2011,09,20,04,22,7.80
2011,09,20,04,23,7.80
2011,09,20,04,24,7.90
2011,09,20,04,25,7.90
2011,09,20,04,26,7.90
2011,09,20,04,27,7.90
2011,09,20,04,28,7.90
2011,09,20,04,29,7.90
2011,09,20,04,30,7.90
2011,09,20,04,31,8.00
2011,09,20,04,32,8.00
2011,09,20,04,33,8.10
2011,09,20,04,34,8.10
2011,09,20,04,35,8.10
2011,09,20,04,36,8.10
2011,09,20,04,37,8.10
2011,09,20,04,38,8.10
2011,09,20,04,39,8.10
2011,09,20,04,40,8.10
2011,09,20,04,41,8.10
2011,09,20,04,42,8.10
2011,09,20,04,43,8.10
2011,09,20,04,44,8.10
2011,09,20,04,45,8.10
2011,09,20,04,46,8.10
2011,09,20,04,47,8.10
2011,09,20,04,48,8.10
2011,09,20,04,49,8.20
2011,09,20,04,50,8.20
2011,09,20,04,51,8.30
2011,09,20,04,52,8.30
2011,09,20,04,53,8.30
2011,09,20,04,54,8.40
2011,09,20,04,55,8.40
2011,09,20,04,56,8.40
2011,09,20,04,57,8.50
2011,09,20,04,58,8.50
2011,09,20,04,59,8.50
2011,09,20,05,00,8.60
2011,09,20,05,01,8.60
2011,09,20,05,02,8.70
2011,09,20,05,03,8.70
2011,09,20,05,04,8.70
2011,09,20,05,05,8.80
2011,09,20,05,06,8.80
2011,09,20,05,07,8.90
2011,09,20,05,08,8.90
2011,09,20,05,09,8.90
2011,09,20,05,10,8.90
2011,09,20,05,11,8.90
2011,09,20,05,12,8.90
2011,09,20,05,13,8.90
2011,09,20,05,14,8.90
2011,09,20,05,15,8.90
2011,09,20,05,16,9.00
2011,09,20,05,17,9.00
2011,09,20,05,18,9.00
2011,09,20,05,19,9.10
2011,09,20,05,20,9.10
2011,09,20,05,21,9.10
2011,09,20,05,22,9.20
2011,09,20,05,23,9.20
2011,09,20,05,24,9.20
2011,09,20,05,25,9.30
2011,09,20,05,26,9.30
2011,09,20,05,27,9.30
2011,09,20,05,28,9.30
2011,09,20,05,29,9.40
2011,09,20,05,30,9.40
2011,09,20,05,31,9.40
2011,09,20,05,32,9.30
2011,09,20,05,33,9.30
2011,09,20,05,34,9.30
2011,09,20,05,35,9.30
2011,09,20,05,36,9.30
2011,09,20,05,37,9.30
2011,09,20,05,38,9.30
2011,09,20,05,39,9.40
2011,09,20,05,40,9.40
2011,09,20,05,41,9.50
2011,09,20,05,42,9.50
2011,09,20,05,43,9.50
2011,09,20,05,44,9.50
2011,09,20,05,45,9.60
2011,09,20,05,46,9.60
2011,09,20,05,47,9.50
2011,09,20,05,48,9.50
2011,09,20,05,49,9.50
2011,09,20,05,50,9.50
2011,09,20,05,51,9.50
2011,09,20,05,52,9.40
2011,09,20,05,53,9.40
2011,09,20,05,54,9.40
2011,09,20,05,55,9.40
2011,09,20,05,56,9.40
2011,09,20,05,57,9.40
2011,09,20,05,58,9.30
2011,09,20,05,59,9.30
2011,09,20,06,00,9.30
2011,09,20,06,01,9.30
2011,09,20,06,02,9.30
2011,09,20,06,03,9.40
2011,09,20,06,04,9.40
2011,09,20,06,05,9.40
2011,09,20,06,06,9.40
2011,09,20,06,07,9.40
2011,09,20,06,08,9.40
2011,09,20,06,09,9.40
2011,09,20,06,10,9.30
2011,09,20,06,11,9.30
2011,09,20,06,12,9.30
2011,09,20,06,13,9.20
2011,09,20,06,14,9.20
2011,09,20,06,15,9.20
2011,09,20,06,16,9.10
2011,09,20,06,17,9.10
2011,09,20,06,18,9.00
2011,09,20,06,19,9.00
2011,09,20,06,20,8.90
2011,09,20,06,21,8.90
2011,09,20,06,22,8.90
2011,09,20,06,23,8.80
2011,09,20,06,24,8.90
2011,09,20,06,25,8.90
2011,09,20,06,26,8.90
2011,09,20,06,27,8.90
2011,09,20,06,28,8.90
2011,09,20,06,29,8.90
2011,09,20,06,30,8.80
2011,09,20,06,31,8.80
2011,09,20,06,32,8.80
2011,09,20,06,33,8.80
2011,09,20,06,34,8.70
2011,09,20,06,35,8.70
2011,09,20,06,36,8.70
2011,09,20,06,37,8.60
2011,09,20,06,38,8.60
2011,09,20,06,39,8.60
2011,09,20,06,40,8.60
2011,09,20,06,41,8.60
2011,09,20,06,42,8.50
2011,09,20,06,43,8.50
2011,09,20,06,44,8.40
2011,09,20,06,45,8.40
2011,09,20,06,46,8.40
2011,09,20,06,47,8.40
2011,09,20,06,48,8.40
2011,09,20,06,49,8.40
2011,09,20,06,50,8.40
2011,09,20,06,51,8.40
2011,09,20,06,52,8.40
2011,09,20,06,53,8.40
2011,09,20,06,54,8.30
2011,09,20,06,55,8.30
2011,09,20,06,56,8.30
2011,09,20,06,57,8.30
2011,09,20,06,58,8.30
2011,09,20,06,59,8.30
2011,09,20,07,00,8.30
2011,09,20,07,01,8.30
2011,09,20,07,02,8.30
2011,09,20,07,03,8.30
2011,09,20,07,04,8.20
2011,09,20,07,05,8.20
2011,09,20,07,06,8.20
2011,09,20,07,07,8.10
2011,09,20,07,08,8.10
2011,09,20,07,09,8.10
2011,09,20,07,10,8.10
2011,09,20,07,11,8.00
2011,09,20,07,12,8.00
2011,09,20,07,13,8.00
2011,09,20,07,14,7.90
2011,09,20,07,15,7.90
2011,09,20,07,16,7.90
2011,09,20,07,17,7.90
2011,09,20,07,18,7.90
2011,09,20,07,19,7.90
2011,09,20,07,20,7.90
2011,09,20,07,21,7.90
2011,09,20,07,22,7.90
2011,09,20,07,23,7.90
2011,09,20,07,24,7.90
2011,09,20,07,25,7.90
2011,09,20,07,26,8.00
2011,09,20,07,27,8.00
2011,09,20,07,28,8.00
2011,09,20,07,29,8.10
2011,09,20,07,30,8.10
2011,09,20,07,31,8.20
2011,09,20,07,32,8.20
2011,09,20,07,33,8.20
2011,09,20,07,34,8.20
2011,09,20,07,35,8.30
2011,09,20,07,36,8.30
2011,09,20,07,37,8.40
2011,09,20,07,38,8.40
2011,09,20,07,39,8.50
2011,09,20,07,40,8.50
2011,09,20,07,41,8.50
2011,09,20,07,42,8.60
2011,09,20,07,43,8.60
2011,09,20,07,44,8.60
2011,09,20,07,45,8.70
2011,09,20,07,46,8.70
2011,09,20,07,47,8.70
2011,09,20,07,48,8.80
2011,09,20,07,49,8.80
2011,09,20,07,50,8.80
2011,09,20,07,51,8.90
2011,09,20,07,52,8.90
2011,09,20,07,53,9.00
2011,09,20,07,54,9.10
2011,09,20,07,55,9.10
2011,09,20,07,56,9.20
2011,09,20,07,57,9.20
2011,09,20,07,58,9.30
2011,09,20,07,59,9.30
2011,09,20,08,00,9.30
2011,09,20,08,01,9.40
2011,09,20,08,02,9.50
2011,09,20,08,03,9.60
2011,09,20,08,04,9.60
2011,09,20,08,05,9.70
2011,09,20,08,06,9.80
2011,09,20,08,07,9.80
2011,09,20,08,08,9.90
2011,09,20,08,09,10.00
2011,09,20,08,10,10.10
2011,09,20,08,11,10.20
2011,09,20,08,12,10.30
2011,09,20,08,13,10.40
2011,09,20,08,14,10.50
2011,09,20,08,15,10.60
2011,09,20,08,16,10.70
2011,09,20,08,17,10.80
2011,09,20,08,18,10.90
2011,09,20,08,19,11.00
2011,09,20,08,20,11.10
2011,09,20,08,21,11.20
2011,09,20,08,22,11.30
2011,09,20,08,23,11.40
2011,09,20,08,24,11.50
2011,09,20,08,25,11.60
2011,09,20,08,26,11.70
2011,09,20,08,27,11.70
2011,09,20,08,28,11.80
2011,09,20,08,29,11.90
2011,09,20,08,30,12.00
2011,09,20,08,31,12.10
2011,09,20,08,32,12.20
2011,09,20,08,33,12.20
2011,09,20,08,34,12.30
2011,09,20,08,35,12.50
2011,09,20,08,36,12.60
2011,09,20,08,37,12.70
2011,09,20,08,38,12.80
2011,09,20,08,39,12.90
2011,09,20,08,40,13.00
2011,09,20,08,41,13.00
2011,09,20,08,42,13.10
2011,09,20,08,43,13.20
2011,09,20,08,44,13.20
2011,09,20,08,45,13.30
2011,09,20,08,46,13.40
2011,09,20,08,47,13.50
2011,09,20,08,48,13.60
2011,09,20,08,49,13.70
2011,09,20,08,50,13.80
2011,09,20,08,51,13.80
2011,09,20,08,52,13.80
2011,09,20,08,53,13.90
2011,09,20,08,54,13.90
2011,09,20,08,55,13.90
2011,09,20,08,56,14.00
2011,09,20,08,57,14.00
2011,09,20,08,58,14.10
2011,09,20,08,59,14.10
2011,09,20,09,00,14.10
2011,09,20,09,01,14.10
2011,09,20,09,02,14.20
2011,09,20,09,03,14.20
2011,09,20,09,04,14.20
2011,09,20,09,05,14.30
2011,09,20,09,06,14.30
2011,09,20,09,07,14.30
2011,09,20,09,08,14.30
2011,09,20,09,09,14.30
2011,09,20,09,10,14.30
2011,09,20,09,11,14.30
2011,09,20,09,12,14.30
2011,09,20,09,13,14.30
2011,09,20,09,14,14.30
2011,09,20,09,15,14.40
2011,09,20,09,16,14.40
2011,09,20,09,17,14.40
2011,09,20,09,18,14.40
2011,09,20,09,19,14.50
2011,09,20,09,20,14.50
2011,09,20,09,21,14.50
2011,09,20,09,22,14.60
2011,09,20,09,23,14.60
2011,09,20,09,24,14.60
2011,09,20,09,25,14.60
2011,09,20,09,26,14.60
2011,09,20,09,27,14.60
2011,09,20,09,28,14.70
2011,09,20,09,29,14.60
2011,09,20,09,30,14.60
2011,09,20,09,31,14.60
2011,09,20,09,32,14.60
2011,09,20,09,33,14.70
2011,09,20,09,34,14.70
2011,09,20,09,35,14.70
2011,09,20,09,36,14.70
2011,09,20,09,37,14.70
2011,09,20,09,38,14.70
2011,09,20,09,39,14.70
2011,09,20,09,40,14.60
2011,09,20,09,41,14.70
2011,09,20,09,42,14.70
2011,09,20,09,43,14.70
2011,09,20,09,44,14.70
2011,09,20,09,45,14.70
2011,09,20,09,46,14.70
2011,09,20,09,47,14.70
2011,09,20,09,48,14.70
2011,09,20,09,49,14.70
2011,09,20,09,50,14.70
2011,09,20,09,51,14.70
2011,09,20,09,52,14.70
2011,09,20,09,53,14.80
2011,09,20,09,54,14.90
2011,09,20,09,55,15.00
2011,09,20,09,56,15.00
2011,09,20,09,57,15.00
2011,09,20,09,58,15.00
2011,09,20,09,59,15.00
2011,09,20,10,00,15.00
2011,09,20,10,01,15.00
2011,09,20,10,02,15.00
2011,09,20,10,03,15.00
2011,09,20,10,04,15.00
2011,09,20,10,05,15.00
2011,09,20,10,06,15.00
2011,09,20,10,07,15.00
2011,09,20,10,08,15.00
2011,09,20,10,09,15.10
2011,09,20,10,10,15.20
2011,09,20,10,11,15.20
2011,09,20,10,12,15.10
2011,09,20,10,13,15.10
2011,09,20,10,14,15.10
2011,09,20,10,15,15.10
2011,09,20,10,16,15.10
2011,09,20,10,17,15.00
2011,09,20,10,18,15.00
2011,09,20,10,19,15.00
2011,09,20,10,20,15.10
2011,09,20,10,21,15.20
2011,09,20,10,22,15.30
2011,09,20,10,23,15.30
2011,09,20,10,24,15.40
2011,09,20,10,25,15.40
2011,09,20,10,26,15.30
2011,09,20,10,27,15.30
2011,09,20,10,28,15.30
2011,09,20,10,29,15.30
2011,09,20,10,30,15.30
2011,09,20,10,31,15.30
2011,09,20,10,32,15.30
2011,09,20,10,33,15.30
2011,09,20,10,34,15.30
2011,09,20,10,35,15.20
2011,09,20,10,36,15.20
2011,09,20,10,37,15.20
2011,09,20,10,38,15.30
2011,09,20,10,39,15.30
2011,09,20,10,40,15.30
2011,09,20,10,41,15.40
2011,09,20,10,42,15.40
2011,09,20,10,43,15.50
2011,09,20,10,44,15.60
2011,09,20,10,45,15.70
2011,09,20,10,46,15.80
2011,09,20,10,47,15.80
2011,09,20,10,48,15.90
2011,09,20,10,49,15.90
2011,09,20,10,50,16.00
2011,09,20,10,51,16.00
2011,09,20,10,52,16.00
2011,09,20,10,53,16.10
2011,09,20,10,54,16.10
2011,09,20,10,55,16.10
2011,09,20,10,56,16.10
2011,09,20,10,57,16.10
2011,09,20,10,58,16.20
2011,09,20,10,59,16.20
2011,09,20,11,00,16.30
2011,09,20,11,01,16.30
2011,09,20,11,02,16.30
2011,09,20,11,03,16.30
2011,09,20,11,04,16.30
2011,09,20,11,05,16.40
2011,09,20,11,06,16.40
2011,09,20,11,07,16.40
2011,09,20,11,08,16.50
2011,09,20,11,09,16.50
2011,09,20,11,10,16.60
2011,09,20,11,11,16.60
2011,09,20,11,12,16.70
2011,09,20,11,13,16.80
2011,09,20,11,14,16.80
2011,09,20,11,15,16.80
2011,09,20,11,16,16.70
2011,09,20,11,17,16.70
2011,09,20,11,18,16.70
2011,09,20,11,19,16.70
2011,09,20,11,20,16.70
2011,09,20,11,21,16.70
2011,09,20,11,22,16.80
2011,09,20,11,23,16.80
2011,09,20,11,24,16.80
2011,09,20,11,25,16.70
2011,09,20,11,26,16.70
2011,09,20,11,27,16.70
2011,09,20,11,28,16.70
2011,09,20,11,29,16.70
2011,09,20,11,30,16.70
2011,09,20,11,31,16.80
2011,09,20,11,32,16.80
2011,09,20,11,33,16.90
2011,09,20,11,34,17.00
2011,09,20,11,35,17.00
2011,09,20,11,36,17.10
2011,09,20,11,37,17.10
2011,09,20,11,38,17.10
2011,09,20,11,39,17.10
2011,09,20,11,40,17.10
2011,09,20,11,41,17.10
2011,09,20,11,42,17.10
2011,09,20,11,43,17.20
2011,09,20,11,44,17.30
2011,09,20,11,45,17.30
2011,09,20,11,46,17.40
2011,09,20,11,47,17.40
2011,09,20,11,48,17.40
2011,09,20,11,49,17.40
2011,09,20,11,50,17.40
2011,09,20,11,51,17.40
2011,09,20,11,52,17.50
2011,09,20,11,53,17.50
2011,09,20,11,54,17.50
2011,09,20,11,55,17.60
2011,09,20,11,56,17.60
2011,09,20,11,57,17.60
2011,09,20,11,58,17.60
2011,09,20,11,59,17.60
2011,09,20,12,00,17.60
2011,09,20,12,01,17.60
2011,09,20,12,02,17.60
2011,09,20,12,03,17.60
2011,09,20,12,04,17.70
2011,09,20,12,05,17.70
2011,09,20,12,06,17.60
2011,09,20,12,07,17.70
2011,09,20,12,08,17.60
2011,09,20,12,09,17.60
2011,09,20,12,10,17.50
2011,09,20,12,11,17.50
2011,09,20,12,12,17.40
2011,09,20,12,13,17.50
2011,09,20,12,14,17.50
2011,09,20,12,15,17.60
2011,09,20,12,16,17.70
2011,09,20,12,17,17.70
2011,09,20,12,18,17.80
2011,09,20,12,19,17.80
2011,09,20,12,20,17.90
2011,09,20,12,21,17.90
2011,09,20,12,22,17.90
2011,09,20,12,23,17.80
2011,09,20,12,24,17.90
2011,09,20,12,25,17.90
2011,09,20,12,26,17.90
2011,09,20,12,27,17.90
2011,09,20,12,28,17.90
2011,09,20,12,29,17.80
2011,09,20,12,30,17.80
2011,09,20,12,31,17.90
2011,09,20,12,32,17.80
2011,09,20,12,33,17.80
2011,09,20,12,34,17.80
2011,09,20,12,35,17.80
2011,09,20,12,36,17.80
2011,09,20,12,37,17.80
2011,09,20,12,38,17.80
2011,09,20,12,39,17.70
2011,09,20,12,40,17.70
2011,09,20,12,41,17.70
2011,09,20,12,42,17.70
2011,09,20,12,43,17.60
2011,09,20,12,44,17.60
2011,09,20,12,45,17.70
2011,09,20,12,46,17.70
2011,09,20,12,47,17.70
2011,09,20,12,48,17.70
2011,09,20,12,49,17.80
2011,09,20,12,50,17.80
2011,09,20,12,51,17.80
2011,09,20,12,52,17.80
2011,09,20,12,53,17.90
2011,09,20,12,54,18.00
2011,09,20,12,55,18.00
2011,09,20,12,56,18.10
2011,09,20,12,57,18.10
2011,09,20,12,58,18.20
2011,09,20,12,59,18.20
2011,09,20,13,00,18.20
2011,09,20,13,01,18.20
2011,09,20,13,02,18.20
2011,09,20,13,03,18.20
2011,09,20,13,04,18.20
2011,09,20,13,05,18.20
2011,09,20,13,06,18.30
2011,09,20,13,07,18.40
2011,09,20,13,08,18.50
2011,09,20,13,09,18.60
2011,09,20,13,10,18.60
2011,09,20,13,11,18.60
2011,09,20,13,12,18.60
2011,09,20,13,13,18.70
2011,09,20,13,14,18.60
2011,09,20,13,15,18.60
2011,09,20,13,16,18.50
2011,09,20,13,17,18.50
2011,09,20,13,18,18.50
2011,09,20,13,19,18.50
2011,09,20,13,20,18.50
2011,09,20,13,21,18.50
2011,09,20,13,22,18.50
2011,09,20,13,23,18.50
2011,09,20,13,24,18.50
2011,09,20,13,25,18.50
2011,09,20,13,26,18.50
2011,09,20,13,27,18.60
2011,09,20,13,28,18.60
2011,09,20,13,29,18.60
2011,09,20,13,30,18.60
2011,09,20,13,31,18.70
2011,09,20,13,32,18.80
2011,09,20,13,33,18.80
2011,09,20,13,34,18.80
2011,09,20,13,35,18.80
2011,09,20,13,36,18.80
2011,09,20,13,37,18.70
2011,09,20,13,38,18.70
2011,09,20,13,39,18.60
2011,09,20,13,40,18.60
2011,09,20,13,41,18.50
2011,09,20,13,42,18.50
2011,09,20,13,43,18.50
2011,09,20,13,44,18.40
2011,09,20,13,45,18.40
2011,09,20,13,46,18.40
2011,09,20,13,47,18.40
2011,09,20,13,48,18.50
2011,09,20,13,49,18.60
2011,09,20,13,50,18.80
2011,09,20,13,51,18.90
2011,09,20,13,52,19.00
2011,09,20,13,53,19.00
2011,09,20,13,54,19.10
2011,09,20,13,55,19.10
2011,09,20,13,56,19.10
2011,09,20,13,57,19.20
2011,09,20,13,58,19.20
2011,09,20,13,59,19.20
2011,09,20,14,00,19.10
2011,09,20,14,01,19.10
2011,09,20,14,02,19.20
2011,09,20,14,03,19.20
2011,09,20,14,04,19.20
2011,09,20,14,05,19.20
2011,09,20,14,06,19.20
2011,09,20,14,07,19.10
2011,09,20,14,08,18.90
2011,09,20,14,09,18.80
2011,09,20,14,10,18.70
2011,09,20,14,11,18.70
2011,09,20,14,12,18.70
2011,09,20,14,13,18.60
2011,09,20,14,14,18.60
2011,09,20,14,15,18.50
2011,09,20,14,16,18.40
2011,09,20,14,17,18.30
2011,09,20,14,18,18.10
2011,09,20,14,19,18.00
2011,09,20,14,20,18.00
2011,09,20,14,21,18.00
2011,09,20,14,22,18.00
2011,09,20,14,23,18.10
2011,09,20,14,24,18.10
2011,09,20,14,25,18.20
2011,09,20,14,26,18.20
2011,09,20,14,27,18.30
2011,09,20,14,28,18.40
2011,09,20,14,29,18.40
2011,09,20,14,30,18.40
2011,09,20,14,31,18.50
2011,09,20,14,32,18.60
2011,09,20,14,33,18.70
2011,09,20,14,34,18.80
2011,09,20,14,35,18.80
2011,09,20,14,36,18.80
2011,09,20,14,37,18.80
2011,09,20,14,38,18.80
2011,09,20,14,39,18.90
2011,09,20,14,40,18.90
2011,09,20,14,41,18.90
2011,09,20,14,42,18.90
2011,09,20,14,43,18.80
2011,09,20,14,44,18.80
2011,09,20,14,45,18.70
2011,09,20,14,46,18.70
2011,09,20,14,47,18.60
2011,09,20,14,48,18.60
2011,09,20,14,49,18.60
2011,09,20,14,50,18.70
2011,09,20,14,51,18.70
2011,09,20,14,52,18.80
2011,09,20,14,53,18.90
2011,09,20,14,54,19.00
2011,09,20,14,55,19.10
2011,09,20,14,56,19.10
2011,09,20,14,57,19.10
2011,09,20,14,58,19.00
2011,09,20,14,59,18.90
2011,09,20,15,00,18.80
2011,09,20,15,01,18.80
2011,09,20,15,02,18.80
2011,09,20,15,03,18.60
2011,09,20,15,04,18.60
2011,09,20,15,05,18.60
2011,09,20,15,06,18.60
2011,09,20,15,07,18.60
2011,09,20,15,08,18.70
2011,09,20,15,09,18.80
2011,09,20,15,10,18.90
2011,09,20,15,11,19.00
2011,09,20,15,12,19.00
2011,09,20,15,13,19.00
2011,09,20,15,14,18.90
2011,09,20,15,15,18.80
2011,09,20,15,16,18.70
2011,09,20,15,17,18.60
2011,09,20,15,18,18.60
2011,09,20,15,19,18.50
2011,09,20,15,20,18.50
2011,09,20,15,21,18.40
2011,09,20,15,22,18.30
2011,09,20,15,23,18.30
2011,09,20,15,24,18.30
2011,09,20,15,25,18.20
2011,09,20,15,26,18.20
2011,09,20,15,27,18.10
2011,09,20,15,28,18.10
2011,09,20,15,29,18.00
2011,09,20,15,30,17.90
2011,09,20,15,31,17.80
2011,09,20,15,32,17.80
2011,09,20,15,33,17.80
2011,09,20,15,34,17.80
2011,09,20,15,35,17.80
2011,09,20,15,36,17.80
2011,09,20,15,37,17.80
2011,09,20,15,38,17.80
2011,09,20,15,39,17.70
2011,09,20,15,40,17.70
2011,09,20,15,41,17.60
2011,09,20,15,42,17.50
2011,09,20,15,43,17.40
2011,09,20,15,44,17.50
2011,09,20,15,45,17.50
2011,09,20,15,46,17.60
2011,09,20,15,47,17.70
2011,09,20,15,48,17.80
2011,09,20,15,49,17.80
2011,09,20,15,50,17.90
2011,09,20,15,51,17.90
2011,09,20,15,52,17.90
2011,09,20,15,53,17.90
2011,09,20,15,54,17.90
2011,09,20,15,55,17.90
2011,09,20,15,56,18.00
2011,09,20,15,57,18.00
2011,09,20,15,58,18.10
2011,09,20,15,59,18.10
2011,09,20,16,00,18.10
2011,09,20,16,01,18.20
2011,09,20,16,02,18.10
2011,09,20,16,03,18.10
2011,09,20,16,04,18.20
2011,09,20,16,05,18.10
2011,09,20,16,06,18.10
2011,09,20,16,07,18.10
2011,09,20,16,08,18.10
2011,09,20,16,09,18.10
2011,09,20,16,10,18.00
2011,09,20,16,11,18.00
2011,09,20,16,12,18.00
2011,09,20,16,13,18.00
2011,09,20,16,14,18.10
2011,09,20,16,15,18.10
2011,09,20,16,16,18.20
2011,09,20,16,17,18.20
2011,09,20,16,18,18.20
2011,09,20,16,19,18.20
2011,09,20,16,20,18.20
2011,09,20,16,21,18.20
2011,09,20,16,22,18.10
2011,09,20,16,23,18.10
2011,09,20,16,24,18.10
2011,09,20,16,25,18.10
2011,09,20,16,26,18.20
2011,09,20,16,27,18.20
2011,09,20,16,28,18.10
2011,09,20,16,29,18.10
2011,09,20,16,30,18.00
2011,09,20,16,31,17.90
2011,09,20,16,32,17.80
2011,09,20,16,33,17.80
2011,09,20,16,34,17.70
2011,09,20,16,35,17.70
2011,09,20,16,36,17.70
2011,09,20,16,37,17.70
2011,09,20,16,38,17.80
2011,09,20,16,39,17.80
2011,09,20,16,40,17.80
2011,09,20,16,41,17.80
2011,09,20,16,42,17.80
2011,09,20,16,43,17.90
2011,09,20,16,44,17.90
2011,09,20,16,45,18.00
2011,09,20,16,46,18.10
2011,09,20,16,47,18.10
2011,09,20,16,48,18.20
2011,09,20,16,49,18.30
2011,09,20,16,50,18.40
2011,09,20,16,51,18.50
2011,09,20,16,52,18.60
2011,09,20,16,53,18.70
2011,09,20,16,54,18.80
2011,09,20,16,55,18.90
2011,09,20,16,56,19.10
2011,09,20,16,57,19.10
2011,09,20,16,58,19.20
2011,09,20,16,59,19.20
2011,09,20,17,00,19.30
2011,09,20,17,01,19.30
2011,09,20,17,02,19.30
2011,09,20,17,03,19.30
2011,09,20,17,04,19.30
2011,09,20,17,05,19.30
2011,09,20,17,06,19.30
2011,09,20,17,07,19.30
2011,09,20,17,08,19.30
2011,09,20,17,09,19.30
2011,09,20,17,10,19.30
2011,09,20,17,11,19.30
2011,09,20,17,12,19.30
2011,09,20,17,13,19.30
2011,09,20,17,14,19.30
2011,09,20,17,15,19.30
2011,09,20,17,16,19.40
2011,09,20,17,17,19.40
2011,09,20,17,18,19.30
2011,09,20,17,19,19.30
2011,09,20,17,20,19.30
2011,09,20,17,21,19.20
2011,09,20,17,22,19.20
2011,09,20,17,23,19.20
2011,09,20,17,24,19.20
2011,09,20,17,25,19.20
2011,09,20,17,26,19.20
2011,09,20,17,27,19.20
2011,09,20,17,28,19.10
2011,09,20,17,29,19.10
2011,09,20,17,30,19.10
2011,09,20,17,31,19.10
2011,09,20,17,32,19.00
2011,09,20,17,33,19.00
2011,09,20,17,34,19.00
2011,09,20,17,35,18.90
2011,09,20,17,36,18.90
2011,09,20,17,37,18.80
2011,09,20,17,38,18.70
2011,09,20,17,39,18.70
2011,09,20,17,40,18.70
2011,09,20,17,41,18.70
2011,09,20,17,42,18.60
2011,09,20,17,43,18.60
2011,09,20,17,44,18.60